Location: David Mid Texas Observatory
(30.9664°N, 96.2113°W)
Time: 16:28:16
(UTC-06:00)

Hubble Space Telescope - Visible Passes

Search period start: 23 November 2017 00:00
Search period end: 03 December 2017 00:00
Orbit: 537 x 541 km, 28.5° (Epoch: 22 November)

Date Brightness Start Highest point End Pass type
(mag) Time Alt. Az. Time Alt. Az. Time Alt. Az.
23 Nov 3.7 04:16:45 15° E 04:16:45 15° E 04:17:35 10° E visible
23 Nov 1.3 05:52:07 21° WSW 05:54:36 48° S 05:58:34 10° ESE visible
24 Nov 4.0 04:07:10 11° E 04:07:10 11° E 04:07:22 10° E visible
24 Nov 1.5 05:42:32 26° WSW 05:44:21 43° SSW 05:48:16 10° ESE visible
25 Nov 1.7 05:32:57 30° SW 05:34:06 37° SSW 05:37:55 10° SE visible
26 Nov 1.8 05:23:23 30° SSW 05:23:50 31° SSW 05:27:31 10° SE visible
27 Nov 2.2 05:13:50 26° SSW 05:13:50 26° SSW 05:17:02 10° SE visible
28 Nov 2.7 05:04:18 20° S 05:04:18 20° S 05:06:28 10° SSE visible
29 Nov 3.3 04:54:48 14° S 04:54:48 14° S 04:55:45 10° SSE visible
